Regional Weather Roundup
Issued by NWS

Home | Current Version | Previous Version | Graphics & Text | Print | Product List | Glossary On
Versions: 1 2 3 4 5 6 7 8 9 10 11 12 13 14 15 16 17 18 19 20 21 22 23 24 25 26 27 28 29 30 31 32 33 34 35 36 37 38 39 40 41 42 43 44 45 46 47 48 49 50
395
ASUS43 KTOP 231508
RWRKS

WEATHER ROUNDUP FOR KANSAS
NATIONAL WEATHER SERVICE GOODLAND KS
900 AM CST THU NOV 23 2017

NOTE:  "FAIR" INDICATES FEW OR NO CLOUDS BELOW 12,000 FEET WITH NO
SIGNIFICANT WEATHER AND/OR OBSTRUCTIONS TO VISIBILITY.

KSZ001>006-013>018-027>032-041>047-231600-
NORTHWEST KANSAS

CITY           SKY/WX    TMP DP  RH WIND       PRES   REMARKS
GOODLAND       CLOUDY    49  39  68 W6        30.14F
HAYS           SUNNY     48  39  71 NW8       30.09S
HILL CITY      CLOUDY    45  40  82 W7        30.10S
RUSSELL        SUNNY     45  39  79 W5        30.07S
$$

KSZ061>065-074>080-084>089-231600-
SOUTHWEST KANSAS

CITY           SKY/WX    TMP DP  RH WIND       PRES   REMARKS
DODGE CITY     CLOUDY    51  38  60 W6        30.13S
ELKHART        CLOUDY    54  38  55 W9        30.20S
GARDEN CITY    CLOUDY    48  38  68 W9        30.14S
GREAT BEND     SUNNY     50  39  66 W6        30.10R
LIBERAL        CLOUDY    51  37  58 NW14      30.17R
PRATT          SUNNY     50  36  58 NW8       30.10S
$$

KSZ066>073-081>083-090>101-231600-
SOUTHEAST KANSAS

CITY           SKY/WX    TMP DP  RH WIND       PRES   REMARKS
CHANUTE        SUNNY     40  24  53 SW8       30.11F
COFFEYVILLE    SUNNY     40  27  59 S8        30.13S
HUTCHINSON     CLOUDY    45  31  58 NW6       30.09R
MEDICINE LODGE   N/A     43  31  62 NW3       30.09R
NEWTON         CLOUDY    43  25  49 W5        30.09S
PARSONS        SUNNY     40  27  59 S8        30.12F
WICHITA INTL   CLOUDY    39  27  62 SW3       30.09S
WICHITA JABRA  CLOUDY    42  25  50 W6        30.09S
WICHITA MCCONL CLOUDY    40  23  50 W3        30.09S
WINFIELD       SUNNY     42  27  55 S3        30.11F
$$

KSZ007>012-019>026-033>040-048>060-102>105-231600-
NORTHEAST KANSAS

CITY           SKY/WX    TMP DP  RH WIND       PRES   REMARKS
CONCORDIA      SUNNY     46  33  60 NW6       30.07R
EMPORIA        SUNNY     45  26  47 W7        30.07F
LAWRENCE       SUNNY     41  26  55 W7        30.08R
MANHATTAN      SUNNY     40  25  55 SW6       30.08S
MARYSVILLE     SUNNY     41  28  60 CALM      30.06S
OLATHE IND     SUNNY     39  24  55 SW12      30.07F WCI  32
OLATHE EXE     SUNNY     39  24  55 SW6       30.06F
SALINA         CLOUDY    44  29  55 CALM      30.09R
TOPEKA BILLARD SUNNY     41  26  55 CALM      30.07S
TOPEKA FORBES  SUNNY     42  26  53 SW5       30.06S
$$




USA.gov is the U.S. government's official web portal to all federal, state and local government web resources and services.